Effective Sunday, March 17, 2024, the National Weather Service National Data Buoy Center will discontinue its Dial-A-Buoy Interactive Voice Response system. For more information, see Service Change Notice 24-06 (PDF).

Station KNSW3 - Kenosha Light, Kenosha, WI Image indicating link to RSS feed of recent meteorological observations for station KNSW3


Conditions at KNSW3 as of
(11:00 am CST)
1700 GMT on 03/02/2024:
     

Click on the graph icon in the table below to see a time series plot of the last five days of that observation.

5-day plot - Wind Direction Wind Direction (WDIR): SE ( 140 deg true )
5-day plot - Wind Speed Wind Speed (WSPD): 6 kts
5-day plot - Wind Gust Wind Gust (GST): 7 kts
5-day plot - Atmospheric Pressure Atmospheric Pressure (PRES):30.08 in
5-day plot - Pressure Tendency Pressure Tendency (PTDY):-0.01 in ( Falling )
5-day plot - Air Temperature Air Temperature (ATMP): 39.6 °F
5-day plot - Wind Chill Wind Chill (CHILL): 34.7 °F
5-day plot - Wind Speed at 10 Meters Wind Speed at 10 meters (WSPD10M): 6 kts
5-day plot - Wind Speed at 20 Meters Wind Speed at 20 meters (WSPD20M): 6 kts
5-day plot -  Wind Speed, Wind Gust and Atmospheric Pressure Combined plot of Wind Speed, Gust, and Air Pressure
Previous observations
TIME
(CST)
5-day plot - Wind Direction
WDIR
 
5-day plot - Wind Speed
WSPD
kts
5-day plot - Wind Gust
GST
kts
5-day plot - Wave Height
WVHT
ft
5-day plot - Dominant Wave Period
DPD
sec
5-day plot - Average Wave Period
APD
sec
5-day plot - Mean Wave Direction
MWD
 
5-day plot - Atmospheric Pressure
PRES
in
5-day plot - Pressure Tendency
PTDY
in
5-day plot - Air Temperature
ATMP
°F
5-day plot - Water Temperature
WTMP
°F
5-day plot - Dew Point
DEWP
°F
5-day plot - Salinity
SAL
psu
5-day plot - Visibility
VIS
nmi
5-day plot - Tide (above MLLW)
TIDE
ft
2024-03-02 10:50 am SE 7 7----30.08- 39.6-----
2024-03-02 10:40 am SE 6 8----30.08- 39.4-----
2024-03-02 10:30 am SE 7 8----30.08- 39.2-----
2024-03-02 10:20 am SE 6 7----30.08- 39.2-----
2024-03-02 10:10 am SE 5 6----30.08- 39.7-----
2024-03-02 10:00 amSSE 6 7----30.08+0.01 39.6-----
2024-03-02 09:50 amSSE 5 6----30.08- 39.6-----
2024-03-02 09:40 amSSE 5 6----30.08- 40.1-----
2024-03-02 09:30 amSSE 4 6----30.08- 41.0-----
2024-03-02 09:20 amSSE 4 7----30.08- 41.4-----
2024-03-02 09:10 amSSE 4 5----30.08- 41.2-----
2024-03-02 09:00 am S 4 6----30.08+0.00 43.5-----
2024-03-02 08:50 am S 4 5----30.08- 43.0-----
2024-03-02 08:40 amSSW 5 7----30.08- 42.3-----
2024-03-02 08:30 amSSW 2 5----30.09- 41.9-----
2024-03-02 08:20 amSSW 4 7----30.09- 41.2-----
2024-03-02 08:10 am S 4 6----30.08- 40.8-----
2024-03-02 08:00 am S 2 4----30.09+0.01 39.6-----
2024-03-02 07:50 am S 3 6----30.09- 39.0-----
2024-03-02 07:40 am S 5 6----30.08- 38.3-----
2024-03-02 07:30 am S 4 6----30.08- 37.9-----
2024-03-02 07:20 am S 4 6----30.08- 37.6-----
2024-03-02 07:10 am S 5 6----30.07- 37.4-----
2024-03-02 07:00 am S 3 5----30.07+0.00 36.9-----
2024-03-02 06:50 am S 4 5----30.07- 36.9-----
2024-03-02 06:40 am S 3 4----30.07- 36.7-----
2024-03-02 06:30 am S 3 4----30.08- 36.7-----
2024-03-02 06:20 am S 3 4----30.08- 36.7-----
2024-03-02 06:10 am S 4 5----30.08- 37.0-----
2024-03-02 06:00 am S 3 4----30.08+0.02 37.4-----
2024-03-02 05:50 am S 3 4----30.08- 37.6-----
2024-03-02 05:40 am S 4 4----30.08- 37.4-----
2024-03-02 05:30 amSSE 4 4----30.08- 37.6-----
2024-03-02 05:20 amSSE 4 4----30.08- 37.6-----
2024-03-02 05:10 amSSE 3 3----30.08- 37.8-----
2024-03-02 05:00 am S 2 3----30.08+0.00 37.8-----
2024-03-02 04:50 am S 2 3----30.08- 38.1-----
2024-03-02 04:40 am S 2 3----30.08- 37.9-----
2024-03-02 04:30 am S 3 3----30.08- 38.3-----
2024-03-02 04:20 am S 3 3----30.08- 38.5-----
2024-03-02 04:10 amSSW 2 3----30.08- 38.7-----
2024-03-02 04:00 amSSW 3 3----30.07+0.00 39.0-----
2024-03-02 03:50 amSSW 2 3----30.07- 38.7-----
2024-03-02 03:40 am S 3 3----30.06- 38.8-----
2024-03-02 03:30 am S 3 3----30.06- 39.2-----
2024-03-02 03:20 am S 2 4----30.06- 39.2-----
2024-03-02 03:10 am S 3 4----30.06- 39.4-----
2024-03-02 03:00 amSSW 3 4----30.06+0.00 39.7-----
2024-03-02 02:50 amSSW 3 6----30.06- 39.9-----
2024-03-02 02:40 amSSW 4 7----30.06- 39.9-----
2024-03-02 02:30 am SW 5 7----30.07- 40.1-----
2024-03-02 02:20 am SW 3 7----30.07- 40.1-----
2024-03-02 02:10 am SW 5 7----30.07- 40.3-----
2024-03-02 02:00 am SW 4 9----30.08+0.03 40.5-----
2024-03-02 01:50 am SW 5 7----30.07- 40.5-----
2024-03-02 01:40 am SW 4 8----30.07- 40.5-----
2024-03-02 01:30 am SW 4 6----30.07- 40.5-----
2024-03-02 01:20 am SW 4 6----30.07- 40.5-----
2024-03-02 01:10 amWSW 5 7----30.07- 40.3-----
2024-03-02 01:00 am SW 4 7----30.07+0.01 40.5-----
2024-03-02 12:50 am SW 5 7----30.06- 40.5-----
2024-03-02 12:40 am SW 4 6----30.07- 40.5-----
2024-03-02 12:30 amSSW 4 6----30.07- 40.5-----
2024-03-02 12:20 amSSW 4 6----30.07- 40.5-----
2024-03-02 12:10 am SW 3 5----30.06- 40.3-----
2024-03-02 12:00 am SW 3 6----30.06-0.01 40.5-----
2024-03-01 11:50 pm SW 4 5----30.06- 40.5-----
2024-03-01 11:40 pm SW 2 4----30.06- 40.6-----
2024-03-01 11:30 pm SW 2 4----30.06- 40.8-----
2024-03-01 11:20 pm SW 3 5----30.06- 41.4-----
2024-03-01 11:10 pmSSW 4 5----30.06- 41.5-----
2024-03-01 11:00 pm S 4 6----30.05+0.00 41.5-----
2024-03-01 10:50 pm S 4 7----30.05- 41.9-----
2024-03-01 10:40 pm S 4 6----30.05- 42.1-----
2024-03-01 10:30 pm S 5 7----30.05- 42.3-----
2024-03-01 10:20 pm S 4 8----30.05- 42.4-----
2024-03-01 10:10 pm S 5 7----30.05- 42.6-----
2024-03-01 10:00 pm S 6 8----30.06+0.01 43.0-----
2024-03-01 09:50 pm S 5 7----30.06- 42.8-----
2024-03-01 09:40 pm S 4 5----30.06- 42.6-----
2024-03-01 09:30 pm S 3 4----30.07- 41.4-----
2024-03-01 09:20 pmSSE 3 5----30.07- 39.7-----
2024-03-01 09:10 pm S 4 5----30.06- 39.9-----
2024-03-01 09:00 pm S 3 5----30.07+0.02 39.9-----
2024-03-01 08:50 pm S 3 6----30.06- 39.6-----
2024-03-01 08:40 pm S 5 7----30.06- 38.8-----
2024-03-01 08:30 pm S 5 8----30.06- 39.0-----
2024-03-01 08:20 pmSSE 7 8----30.05- 39.2-----
2024-03-01 08:10 pmSSE 8 9----30.05- 39.2-----
2024-03-01 08:00 pmSSE 8 9----30.05-0.01 39.4-----
2024-03-01 07:50 pmSSE 7 9----30.05- 39.4-----
2024-03-01 07:40 pmSSE 7 9----30.05- 39.2-----
2024-03-01 07:30 pm S 5 9----30.05- 39.0-----
2024-03-01 07:20 pmSSE 8 9----30.05- 39.0-----
2024-03-01 07:10 pmSSE 7 9----30.05- 39.0-----
2024-03-01 07:00 pmSSE 7 8----30.05-0.02 39.0-----
2024-03-01 06:50 pmSSE 7 8----30.05- 39.0-----
2024-03-01 06:40 pm S 6 7----30.05- 38.8-----
2024-03-01 06:30 pm S 6 8----30.05- 39.0-----
2024-03-01 06:20 pm S 5 8----30.05- 39.0-----
2024-03-01 06:10 pm S 6 8----30.06- 38.8-----
2024-03-01 06:00 pm S 6 8----30.05-0.03 38.7-----
2024-03-01 05:50 pmSSE 7 8----30.05- 38.5-----
2024-03-01 05:40 pmSSE 6 8----30.06- 38.5-----
2024-03-01 05:30 pmSSE 6 8----30.06- 38.5-----
2024-03-01 05:20 pmSSE 6 8----30.06- 38.5-----
2024-03-01 05:10 pmSSE 7 8----30.06- 38.7-----
2024-03-01 05:00 pmSSE 7 8----30.06-0.03 38.5-----
2024-03-01 04:50 pm S 6 8----30.06- 38.5-----
2024-03-01 04:40 pmSSE 8 8----30.06- 38.7-----
2024-03-01 04:30 pmSSE 8 9----30.07- 38.7-----
2024-03-01 04:20 pmSSE 8 10----30.07- 38.7-----
2024-03-01 04:10 pm SE 9 10----30.07- 38.8-----
2024-03-01 04:00 pm SE 9 10----30.07-0.05 39.2-----
2024-03-01 03:50 pmSSE 8 9----30.07- 38.8-----
2024-03-01 03:40 pm SE 8 9----30.07- 39.0-----
2024-03-01 03:30 pm SE 9 9----30.07- 38.8-----
2024-03-01 03:20 pm SE 8 8----30.07- 38.7-----
2024-03-01 03:10 pm SE 8 8----30.07- 38.5-----
2024-03-01 03:00 pmSSE 7 8----30.08-0.07 38.7-----
2024-03-01 02:50 pmSSE 7 8----30.08- 38.5-----
2024-03-01 02:40 pm SE 7 10----30.09- 38.3-----
2024-03-01 02:30 pm SE 8 9----30.09- 38.3-----
2024-03-01 02:20 pm SE 8 10----30.09- 38.3-----
2024-03-01 02:10 pm SE 8 9----30.09- 38.1-----
2024-03-01 02:00 pmSSE 9 10----30.09-0.07 38.1-----
2024-03-01 01:50 pmSSE 9 10----30.09- 37.9-----
2024-03-01 01:40 pmSSE 9 10----30.10- 38.1-----
2024-03-01 01:30 pmSSE 9 11----30.10- 37.9-----
2024-03-01 01:20 pmSSE 9 10----30.11- 37.8-----
2024-03-01 01:10 pmSSE 10 11----30.12- 37.8-----
2024-03-01 01:00 pmSSE 9 10----30.12-0.05 37.8-----
2024-03-01 12:50 pmSSE 8 10----30.12- 38.1-----
2024-03-01 12:40 pmSSE 8 9----30.13- 37.9-----
2024-03-01 12:30 pm SE 7 9----30.14- 38.1-----
2024-03-01 12:20 pmSSE 8 10----30.14- 38.1-----
2024-03-01 12:10 pmSSE 9 10----30.14- 37.8-----
2024-03-01 12:00 pmSSE 9 10----30.15-0.04 37.8-----
2024-03-01 11:50 amSSE 10 11----30.15- 37.8-----
2024-03-01 11:40 amSSE 9 11----30.15- 39.0-----
2024-03-01 11:30 amSSE 8 9----30.16- 38.1-----
2024-03-01 11:20 am SE 8 9----30.16- 37.9-----
2024-03-01 11:10 am SE 9 10----30.16- 37.6-----
2024-03-01 11:00 am SE 9 10----30.16-0.04 37.6-----
2024-03-01 10:50 am SE 8 9----30.16- 37.6-----